Regional Weather Roundup
Issued by NWS

Home | Current Version | Previous Version | Graphics & Text | Print | Product List | Glossary On
Versions: 1 2 3 4 5 6 7 8 9 10 11 12 13 14 15 16 17 18 19 20 21 22 23 24 25 26 27 28 29 30 31 32 33 34 35 36 37 38 39 40 41 42 43 44 45 46 47 48 49 50
000
ASUS43 KIND 282009
RWRIN

WEATHER ROUNDUP FOR INDIANA
NATIONAL WEATHER SERVICE INDIANAPOLIS IN
400 PM EDT FRI AUG 28 2015

NOTE: "FAIR" INDICATES FEW OR NO CLOUDS BELOW 12,000 FEET WITH NO
SIGNIFICANT WEATHER AND/OR OBSTRUCTIONS TO VISIBILITY.

* - STATION DOES NOT REPORT WEATHER SUCH AS PRECIPITATION OR FOG.

+ - STATION NOT QUALITY CONTROLLED BY THE NATIONAL WEATHER SERVICE.
    USE DATA WITH CAUTION...ESPECIALLY DEWPOINT AND RELATIVE
    HUMIDITY OBSERVATIONS.

INZ001>003-010>013-019-020-282100-
NORTHWEST INDIANA

CITY           SKY/WX    TMP DP  RH WIND       PRES   REMARKS
GARY /AIRPORT/ CLOUDY    75  57  53 CALM      30.13F
KNOX *+        CLOUDY    75  57  53 SW3       30.12F
LA PORTE +     CLOUDY    76  63  62 W3        30.14F
MICHIGAN CITY+ CLOUDY    73  61  64 S3        30.13F
MONTICELLO +   CLOUDY    76  60  56 S3        30.13F
RENSSELAER +   CLOUDY    77  63  61 S6        30.12F
VALPARAISO     CLOUDY    76  60  57 SW5       30.13F

$$

LMZ046-743>745-282100-
SOUTHERN LAKE MICHIGAN

STATION/POSITION TIME  TEMP    WIND        PRES    WAVE
                       AIR SEA DIR/SP/G            HT
                 (UTC) (F)     (DEG/KT/KT) (MB)    (FT)
BURNS HARBOR     1900   74     260/  5/  7 1020.7F
MICHIGAN CITY    1900   73     230/  5/  6   N/A
5NW MICH CITY    2000   72 72  300/  2/  2   N/A     0

$$

INZ004-005-014>016-021>024-282100-
NORTH CENTRAL INDIANA

CITY           SKY/WX    TMP DP  RH WIND       PRES   REMARKS
ELKHART        PTSUNNY   77  59  53 SW5       30.14F
GOSHEN         PTSUNNY   78  60  53 SW6       30.14F
LOGANSPORT +   CLOUDY    77  52  41 S5        30.15S
PERU/GRISSOM   CLOUDY    77  60  54 SE2       30.13F
ROCHESTER +    CLOUDY    79  59  50 SE5       30.15S
SOUTH BEND     CLOUDY    76  60  57 W6        30.14F
WARSAW +       PTSUNNY   75  59  57 CALM      30.14F

$$

INZ006>009-017-018-025>027-282100-
NORTHEAST INDIANA

CITY           SKY/WX    TMP DP  RH WIND       PRES   REMARKS
ANGOLA *+      MOSUNNY   77  68  73 SW6       30.15F
AUBURN +       PTSUNNY   77  55  47 W3        30.16F
FORT WAYNE     PTSUNNY   76  58  53 CALM      30.15F
HUNTINGTON +   PTSUNNY   76  53  44 CALM      30.15S

$$

INZ028-029-035-036-043>045-051>053-282100-
WEST CENTRAL INDIANA

CITY           SKY/WX    TMP DP  RH WIND       PRES   REMARKS
CRAWFORDSVL +  PTSUNNY   75  52  44 SE5       30.14F
GREENCASTLE +  PTSUNNY   77  54  44 CALM      30.14F
LAFAYETTE      CLOUDY    78  56  46 SE6       30.12F
TERRE HAUTE    MOSUNNY   81  56  42 SE9       30.12F

$$

INZ030>032-037>040-046>048-054>057-064-065-282100-
CENTRAL INDIANA

CITY           SKY/WX    TMP DP  RH WIND       PRES   REMARKS
ANDERSON       MOSUNNY   79  48  34 SE6       30.16F
FRANKFORT +    CLOUDY    77  60  55 CALM      30.16F
GREENWOOD *+   PTSUNNY   77  52  41 E9        30.15F
INDIANAPOLIS   PTSUNNY   77  54  44 S8        30.12F
-EAGLE CREEK   PTSUNNY   78  56  46 E7        30.13F
KOKOMO *+      CLOUDY    77  59  53 S6        30.15S
MARION +       PTSUNNY   76  45  32 CALM      30.16S
MT COMFORT *+  PTSUNNY   77  46  33 SE8       30.15F
SHELBYVILLE    PTSUNNY   79  58  48 SE6       30.13F
ZIONSVILLE +   PTSUNNY   78  55  44 SE6       30.15S

$$

INZ033-034-041-042-049-050-058-059-282100-
EAST CENTRAL INDIANA

CITY           SKY/WX    TMP DP  RH WIND       PRES   REMARKS
MUNCIE         PTSUNNY   75  54  47 MISG      30.15F

$$

INZ060-061-067>069-081>083-085>088-282100-
SOUTHWEST INDIANA

CITY           SKY/WX    TMP DP  RH WIND       PRES   REMARKS
EVANSVILLE     SUNNY     82  58  43 SE6       30.09F
HUNTINGBURG *+ MOSUNNY   81  59  47 SE3       30.10F
WASHINGTON +   SUNNY     80  49  33 SE3       30.11F

$$

INZ062-063-066-070>080-084-089>092-282100-
SOUTH CENTRAL AND SOUTHEAST INDIANA

CITY           SKY/WX    TMP DP  RH WIND       PRES   REMARKS
BLOOMINGTON    PTSUNNY   78  57  48 E8        30.13F
MADISON *+     PTSUNNY   81  54  39 CALM      30.15F
NORTH VERNON + PTSUNNY   79  54  41 CALM      30.14F
SEYMOUR +      PTSUNNY   81  57  44 CALM      30.12F

$$




USA.gov is the U.S. government's official web portal to all federal, state and local government web resources and services.